Location: *
(51.0333°S, 178.4667°E)
Time: 05:50:37
(UTC+00:00)

USA 267 - Pass Details

Date: 15 November 2019
Orbit: 1101 x 1106 km, 123.0° (Epoch: 09 December)

Event Time Altitude Azimuth Distance (km) Brightness Sun altitude
Rises 09:02:55 0° 115° (ESE) 3,956 6.0 -11.4°
Reaches altitude 10° 09:05:26 10° 117° (ESE) 2,997 5.4 -11.7°
Maximum altitude 09:11:57 63° 195° (SSW) 1,244 3.8 -12.3°
Drops below altitude 10° 09:18:27 10° 274° (W) 2,988 6.0 -12.9°
Sets 09:20:57 0° 277° (W) 3,943 6.6 -13.2°
